Location: Cabeza de los Veneras
(40.2000°N, 5.2000°W)
Time: 14:26:23
(UTC+00:00)

COSMOS 2455 - Pass Details

Date: 18 April 2024
Orbit: 898 x 911 km, 67.1° (Epoch: 28 May)

Event Time Altitude Azimuth Distance (km) Brightness Sun altitude
Rises 20:17:20 0° 340° (NNW) 3,547 6.7 -14.0°
Reaches altitude 10° 20:20:28 10° 355° (N) 2,603 5.7 -14.5°
Maximum altitude 20:25:05 22° 45° (NE) 1,877 4.3 -15.3°
Enters shadow 20:28:04 16° 82° (E) 2,209 4.4 -15.8°
